Orbital Elements at Epoch 2456472.5 (2013-Jun-29.0) TDB
Reference: JPL 55 (heliocentric ecliptic J2000)
Element | Value | Uncertainty (1-sigma) | Units |
e | .5634634271788309 | 6.0836e-08 | |
a | 3.400718932170693 | 4.5202e-08 | au |
q | 1.48453818777786 | 2.0868e-07 | au |
i | 14.65215695098109 | 7.9149e-06 | deg |
node | 112.4028657174638 | 2.1638e-05 | deg |
peri | 308.8921154701211 | 3.234e-05 | deg |
M | 222.99402117335 | 7.8713e-06 | deg |
tp | 2457344.249194366559 (2015-Nov-17.74919437) | 3.6894e-05 | TDB |
period | 2290.627844563204 6.27 | 4.567e-05 1.25e-07 | d yr |
n | .1571621513527213 | 3.1335e-09 | deg/d |
Q | 5.316899676563526 | 7.0671e-08 | au |
|
| | Orbit Determination Parameters
Additional Information
|